This is the latest recevied weather packets stored in our database for station/object W4TJP. If no packets are shown the sender has not sent any weather packets the latest 10 day(s).
| Time | Temp. | Humidity | Pressure | Rain* | Wind** | Luminosity | Snow |
|---|---|---|---|---|---|---|---|
| 1777930410 | 25° C | 48% | 1011.8 hPa | 0 mm | - | 416 W/m² | - |
| 1777930107 | 24.44° C | 46% | 1011.6 hPa | 0 mm | - | 422 W/m² | - |
| 1777929803 | 24.44° C | 46% | 1011.9 hPa | 0 mm | - | 459 W/m² | - |
| 1777929501 | 25° C | 45% | 1011.6 hPa | 0 mm | - | 443 W/m² | - |
| 1777929197 | 24.44° C | 46% | 1011.9 hPa | 0 mm | - | 464 W/m² | - |
| 1777928895 | 25° C | 45% | 1012 hPa | 0 mm | - | 405 W/m² | - |
| 1777928592 | 25° C | 45% | 1012 hPa | 0 mm | - | 473 W/m² | - |
| 1777928289 | 25° C | 43% | 1011.9 hPa | 0 mm | - | 484 W/m² | - |
| 1777927986 | 25° C | 44% | 1012 hPa | 0 mm | - | 498 W/m² | - |
| 1777927684 | 25° C | 44% | 1012.2 hPa | 0 mm | - | 504 W/m² | - |
| 1777927382 | 25° C | 45% | 1012.1 hPa | 0 mm | - | 507 W/m² | - |
| 1777927082 | 24.44° C | 45% | 1012.4 hPa | 0 mm | - | 511 W/m² | - |
| 1777926779 | 24.44° C | 46% | 1012.3 hPa | 0 mm | - | 530 W/m² | - |
| 1777926478 | 24.44° C | 45% | 1012.3 hPa | 0 mm | - | 531 W/m² | - |
| 1777926176 | 24.44° C | 45% | 1012.5 hPa | 0 mm | - | 133 W/m² | - |
| 1777925873 | 25° C | 43% | 1012.4 hPa | 0 mm | - | 576 W/m² | - |
| 1777925570 | 25° C | 46% | 1012.6 hPa | 0 mm | - | 527 W/m² | - |
| 1777925268 | 25.56° C | 45% | 1012.7 hPa | 0 mm | - | 146 W/m² | - |
| 1777924963 | 25.56° C | 46% | 1012.8 hPa | 0 mm | - | 594 W/m² | - |
| 1777924660 | 25° C | 50% | 1012.8 hPa | 0 mm | - | 619 W/m² | - |
| 1777924356 | 24.44° C | 47% | 1012.7 hPa | 0 mm | - | 665 W/m² | - |
| 1777924053 | 24.44° C | 47% | 1012.7 hPa | 0 mm | - | 729 W/m² | - |
| 1777923749 | 24.44° C | 47% | 1012.9 hPa | 0 mm | - | 741 W/m² | - |
| 1777923446 | 24.44° C | 47% | 1013.1 hPa | 0 mm | - | 665 W/m² | - |
| 1777923143 | 25° C | 49% | 1013.2 hPa | 0 mm | - | 677 W/m² | - |
* Rain latest hour (hover to see other rain measurements)
** Current wind speed in m/s (hover to see current wind gust speed)